Regional Weather Roundup
Issued by NWS

Home | Current Version | Previous Version | Graphics & Text | Print | Product List | Glossary On
Versions: 1 2 3 4 5 6 7 8 9 10 11 12 13 14 15 16 17 18 19 20 21 22 23 24 25 26 27 28 29 30 31 32 33 34 35 36 37 38 39 40 41 42 43 44 45 46 47 48 49 50
000
ASUS43 KLSX 131507
RWRMO

WEATHER SUMMARY FOR MISSOURI
NATIONAL WEATHER SERVICE SPRINGFIELD MO
900 AM CST WED DEC 13 2017

NOTE: "FAIR" INDICATES FEW OR NO CLOUDS BELOW 12,000 FEET WITH NO
       SIGNIFICANT WEATHER AND/OR OBSTRUCTIONS TO VISIBILITY.
       CURRENT SKY AND/OR WEATHER CONDITIONS ARE NOT AVAILABLE FOR
       CHILLICOTHE AND FARMINGTON.

MOZ001>031-035>038-043-044-053-054-131600-
...NORTHERN AND WESTERN MISSOURI...

CITY           SKY/WX    TMP DP  RH WIND       PRES   REMARKS
KANSAS CTY INT CLOUDY    42  25  50 W10       29.72R
KANSAS C DTWN  MOSUNNY   41  26  55 SW8       29.73R
LEE`S SUMMIT   SUNNY     41  27  57 W15       29.73R
ST JOSEPH      CLOUDY    45  28  51 W14       29.70S
CHILLICOTHE      N/A     42  26  53 W8        29.65R
KIRKSVILLE     MOSUNNY   38  32  79 W13G22    29.58R WCI  30

$$
MOZ066>068-077>081-088>096-101>105-131600-
...SOUTHWEST MISSOURI...

CITY           SKY/WX    TMP DP  RH WIND       PRES   REMARKS
SPRINGFIELD    SUNNY     46  25  43 W15       29.80R
JOPLIN         SUNNY     43  28  55 SW17G25   29.86R
BRANSON        SUNNY     48  19  32 MISG      29.80F

$$
MOZ032>034-039>042-045>050-055>058-069>072-131600-
...CENTRAL MISSOURI...

CITY           SKY/WX    TMP DP  RH WIND       PRES   REMARKS
COLUMBIA       SUNNY     42  26  53 SW18      29.66F
JEFFERSON CITY   N/A     40  25  55 CALM      29.70S
ROLLA          SUNNY     40  22  48 SW16      29.71R
SEDALIA        SUNNY     41  28  60 SW15G23   29.72S
WHITEMAN AFB   PTSUNNY   40  26  56 W15       29.67S
WARRENSBURG    SUNNY     37  28  70 SW10      29.72S

$$
MOZ051-052-059>065-131600-
...EAST CENTRAL MISSOURI...

CITY           SKY/WX    TMP DP  RH WIND       PRES   REMARKS
ST LOUIS INTL  PTSUNNY   38  20  48 S14G21    29.64F WCI  30
SPIRIT OF STL  MOSUNNY   41  21  44 SW15G26   29.64F
ST CHARLES     SUNNY     38  20  48 SW13      29.66F WCI  30

$$
MOZ072>076-082>087-097>100-106>115-131600-
...SOUTH CENTRAL AND SOUTHEAST MISSOURI...

CITY           SKY/WX    TMP DP  RH WIND       PRES   REMARKS
CAPE GIRARDEAU SUNNY     36  17  46 S16G25    29.85F WCI  26
FARMINGTON     SUNNY     37  19  48 SW16G25   29.74F WCI  28
POPLAR BLUFF   SUNNY     37  21  52 S12       29.87F WCI  29
WEST PLAINS    SUNNY     39  18  42 SW10      29.80F

$$



USA.gov is the U.S. government's official web portal to all federal, state and local government web resources and services.